Cloud_Cover
1 10 0 100 99 63 47 99 100 100 100 89 100 10 1 4 0 0 0 0 0 0 0 0 0 0 0 5 33 5 28 100 100 100 100 100 100 100 100 100 100 98 87
0 0 0 0 95 98 14 37 100 100 100 100 100 100 5 5 32 1 0 0 0 0 4 5 4 2 18 1 0 5 5 5 20 51 60 49 23 57 92 98 42 27 26
0 3 0 0 1 95 100 100 91 100 32 100 100 100 6 5 12 13 3 0 0 0 0 1 9 7 21 2 10 11 2 8 9 5 37 54 5 3 4 4 3 0 0
0 0 0 0 0 2 100 100 100 100 100 88 100 100 72 54 5 5 5 1 0 0 0 5 12 12 5 5 1 13 5 0 50 0 3 8 4 5 10 2 5 22 25
0 0 0 0 0 0 0 21 78 100 100 100 100 100 100 24 5 4 12 5 2 0 0 0 0 0 4 5 1 15 1 1 0 0 3 23 22 42 15 20 94 29 81
0 0 0 0 0 0 0 0 0 5 6 74 100 100 100 84 6 50 38 0 4 3 0 0 0 0 0 0 0 0 0 0 0 0 80 8 4 44 64 35 26 14 39
0 0 0 0 0 0 0 0 0 0 0 3 55 98 73 94 100 100 4 0 0 2 5 0 0 0 0 0 0 0 0 0 0 17 64 96 67 95 97 11 8 11 6
0 0 0 0 0 0 0 0 0 0 0 0 1 25 99 66 82 100 88 10 2 1 0 5 5 0 0 0 1 0 0 0 12 57 68 51 99 4 0 1 6 1 5
0 0 0 0 0 0 0 0 0 0 0 0 0 0 5 85 100 56 8 100 83 7 5 0 5 0 0 0 5 0 0 0 100 52 50 60 100 100 1 0 0 3 7
0 0 0 0 0 0 0 0 0 0 0 0 0 0 0 3 92 100 100 55 100 99 68 48 14 34 5 5 0 0 0 0 65 70 100 100 92 82 0 0 0 0 0
0 0 0 0 0 0 0 0 0 0 0 6 0 0 0 5 33 99 100 100 100 100 100 94 100 100 64 9 5 0 1 0 54 13 11 50 100 64 0 0 0 0 7
0 0 0 0 0 0 0 0 0 0 0 0 2 42 15 58 81 34 100 100 100 100 100 100 100 100 100 11 6 37 4 0 7 17 12 93 58 2 0 9 2 2 1
4 0 0 0 1 0 0 0 0 0 0 0 0 15 37 32 59 44 32 100 100 100 100 100 100 100 100 60 27 7 27 7 5 16 82 5 5 5 6 5 9 5 9
0 0 0 0 1 5 0 0 0 0 0 0 0 0 36 47 57 64 37 55 75 100 100 100 100 100 100 100 96 64 30 49 24 39 62 59 20 72 20 5 5 5 5
1 0 0 0 0 5 5 0 0 0 0 0 0 0 32 89 78 72 75 54 97 59 100 100 100 100 90 73 100 100 87 12 50 38 71 100 99 96 100 73 5 32 5
5 5 11 5 3 0 2 4 0 0 0 0 0 0 0 12 73 100 96 87 100 85 48 93 100 100 100 100 66 96 100 100 88 88 44 86 82 92 100 100 50 32 76
5 5 5 5 5 4 5 0 0 0 0 0 0 0 0 0 1 97 100 86 96 100 91 100 100 100 100 100 100 57 91 100 100 100 100 100 100 100 100 100 100 100 98
0 0 4 2 0 1 0 2 0 5 5 0 0 0 0 0 0 93 100 100 89 100 100 100 100 98 100 100 100 100 93 74 100 100 100 100 100 100 100 100 100 100 100
0 0 0 0 0 0 0 0 0 0 3 0 11 4 0 0 9 40 89 73 19 100 100 100 100 100 100 100 100 100 99 98 97 100 100 100 100 100 100 100 100 100 100
0 0 0 0 0 0 0 1 37 32 26 18 0 0 7 7 10 24 89 100 81 58 84 100 100 100 98 100 100 100 100 100 97 100 100 100 100 100 100 100 100 100 100
0 0 0 0 0 0 28 29 94 100 100 99 28 0 0 0 0 3 21 88 100 95 99 57 100 100 100 100 95 100 100 100 100 100 100 100 100 100 100 100 100 100 100
0 0 0 0 0 0 4 30 25 25 64 30 98 78 20 2 16 20 3 0 2 50 97 100 99 100 100 95 100 69 100 100 100 100 100 100 100 100 100 100 100 100 100
0 0 0 0 0 0 49 100 100 100 98 75 34 25 28 37 28 69 21 21 13 7 28 84 100 59 100 100 94 92 100 100 100 100 100 100 100 100 100 100 100 100 100
0 0 0 0 0 0 48 100 90 100 80 0 0 0 0 34 52 54 96 19 26 49 27 8 21 100 97 100 98 100 100 99 100 100 100 100 100 100 100 100 100 100 100
0 0 0 0 0 4 32 63 100 100 50 24 12 12 5 46 99 100 100 100 95 76 42 29 53 35 100 94 100 97 100 100 100 100 100 100 100 73 100 100 100 100 100
0 0 4 5 5 7 100 82 100 100 100 100 93 100 77 76 100 100 99 100 100 100 76 26 2 21 49 100 82 100 100 100 88 100 100 100 100 100 92 100 100 100 100